Weather History for Marathon, FL

Change the Weather History Date:

Saturday, March 23, 2013

  Actual Average Record
Temperature  
Mean Temperature 81 °F 75 °F  
Max Temperature 86 °F 80 °F 88 °F (2014)
Min Temperature 76 °F 69 °F 61 °F (2001)
Degree Days  
Heating Degree Days 0 0  
Month to date heating degree days 19 0  
Since 1 July heating degree days 32 75  
Cooling Degree Days 16 10  
Month to date cooling degree days 133 200  
Year to date cooling degree days 728 582  
Growing Degree Days 30 (Base 50)    
Moisture  
Dew Point 71 °F    
Average Humidity 76    
Maximum Humidity 87    
Minimum Humidity 65    
Precipitation  
Precipitation 0.00 in 0.07 in 1.39 in (2006)
Month to date precipitation 1.00 1.73  
Year to date precipitation 3.38 5.55  
Snow  
Snow 0.00 in - - ()
Month to date snowfall 0.0  
Since 1 July snowfall 0.0  
Snow Depth 0.00 in    
Sea Level Pressure  
Sea Level Pressure 29.91 in    
Wind  
Wind Speed 6 mph (SSE)    
Max Wind Speed 10 mph    
Max Gust Speed 15 mph    
Visibility 9 miles    
Events      
T = Trace of Precipitation, MM = Missing Value Source: NWS Daily Summary

Daily Weather History Graph

Daily Weather History Graph

Search for Another Location

Airport:

Trip Planner

Search our weather history database for the weather conditions in past years. The results will help you decide how hot, cold, wet, or windy it might be!

Date:

Astronomy

Mar. 23, 2013 Rise Set
Actual Time 7:24 AM EDT 7:36 PM EDT
Civil Twilight 7:02 AM EDT 7:59 PM EDT
Nautical Twilight 6:35 AM EDT 8:26 PM EDT
Astronomical Twilight 6:08 AM EDT 8:52 PM EDT
Moon 4:21 PM EDT (3/23) 4:39 AM EDT (3/23)
Length of Visible Light 12h 57m
Length of Day
12h 11m
Waxing Gibbous, 85% of the Moon is Illuminated
Mar 23
Waxing Gibbous
Mar 27
Full
Apr 3
Last Quarter
Apr 10
New
Apr 18
First Quarter

Hourly Weather History & Observations

Time (EDT) Temp. Heat Index Dew Point Humidity Pressure Visibility Wind Dir Wind Speed Gust Speed Precip Events Conditions
12:53 AM 77.0 °F - 71.1 °F 82% 29.98 in 9.0 mi SE 4.6 mph - N/A   Partly Cloudy
1:53 AM 77.0 °F - 72.0 °F 84% 29.97 in 10.0 mi SSE 5.8 mph - N/A   Clear
3:53 AM 77.0 °F - 72.0 °F 84% 29.93 in 8.0 mi South 6.9 mph - N/A   Clear
4:53 AM 77.0 °F - 72.0 °F 84% 29.93 in 8.0 mi South 4.6 mph - N/A   Clear
5:53 AM 75.9 °F - 71.1 °F 85% 29.92 in 9.0 mi South 4.6 mph - N/A   Clear
6:53 AM 75.9 °F - 71.1 °F 85% 29.94 in 8.0 mi South 6.9 mph - N/A   Clear
7:53 AM 77.0 °F - 71.1 °F 82% 29.95 in 8.0 mi South 8.1 mph - N/A   Clear
8:53 AM 79.0 °F - 71.1 °F 77% 29.96 in 10.0 mi South 3.5 mph - N/A   Clear
9:53 AM 81.0 °F 84.9 °F 71.1 °F 72% 29.97 in 10.0 mi South 6.9 mph - N/A   Partly Cloudy
10:53 AM 82.0 °F 86.7 °F 72.0 °F 71% 29.97 in 9.0 mi South 8.1 mph - N/A   Clear
11:53 AM 84.0 °F 89.6 °F 72.0 °F 67% 29.95 in 10.0 mi South 5.8 mph - N/A   Clear
12:53 PM 84.0 °F 89.6 °F 72.0 °F 67% 29.93 in 10.0 mi South 8.1 mph - N/A   Clear
1:53 PM 84.0 °F 89.6 °F 72.0 °F 67% 29.90 in 10.0 mi South 8.1 mph - N/A   Clear
2:53 PM 84.0 °F 89.6 °F 72.0 °F 67% 29.88 in 9.0 mi South 9.2 mph - N/A   Clear
3:53 PM 84.0 °F 89.0 °F 71.1 °F 65% 29.86 in 10.0 mi South 6.9 mph - N/A   Clear
4:53 PM 82.9 °F 87.0 °F 70.0 °F 65% 29.84 in 10.0 mi SE 5.8 mph - N/A   Clear
5:53 PM 82.0 °F 85.5 °F 69.1 °F 65% 29.84 in 10.0 mi SE 4.6 mph - N/A   Clear
6:53 PM 81.0 °F 84.1 °F 69.1 °F 67% 29.85 in 10.0 mi Variable 3.5 mph - N/A   Clear
7:53 PM 79.0 °F - 69.1 °F 72% 29.86 in 10.0 mi ESE 4.6 mph - N/A   Clear
8:53 PM 79.0 °F - 71.1 °F 77% 29.87 in 10.0 mi Variable 3.5 mph - N/A   Partly Cloudy
9:53 PM 78.1 °F - 72.0 °F 81% 29.89 in 9.0 mi ESE 3.5 mph - N/A   Clear
10:53 PM 78.1 °F - 72.0 °F 81% 29.90 in 9.0 mi SE 4.6 mph - N/A   Clear
11:53 PM 78.1 °F - 73.0 °F 84% 29.90 in 7.0 mi ESE 3.5 mph - N/A   Clear